AFR106 KBOS-LFPG

Flight info

Callsign AFR106
Flight time N/A
Altitude 39000
Route CELTK7 CELTK DCT FRILL DCT WHALE N251B NICSO/M085F390 DCT 48N050W 49N040W 50N030W 51N020W DCT DINIM DCT ELSOX DCT LULOX/N0488F390 DCT NAKID DCT ANNET UM25 LUKIP
Aircraft A359/H-SDE2E3GHIJ3J4J5LM1ORWXY/LB1D1

Departure

Time 2026-05-06 10:17
Airport Boston Logan International Airport (KBOS)

Arrival

Time N/A
Airport Charles de Gaulle International Airport (LFPG)
Time Latitude Longitude Altitude Speed Heading
2026-05-06 09:44 42.37123 -71.01920 34 ft 0 kts 213°
2026-05-06 10:10 42.37125 -71.01918 34 ft 1 kts 213°
2026-05-06 10:10 42.37140 -71.01906 32 ft 3 kts 208°
2026-05-06 10:11 42.37158 -71.01894 34 ft 3 kts 197°
2026-05-06 10:11 42.37177 -71.01888 34 ft 3 kts 175°
2026-05-06 10:11 42.37193 -71.01894 34 ft 2 kts 132°
2026-05-06 10:11 42.37196 -71.01900 34 ft 1 kts 123°
2026-05-06 10:12 42.37195 -71.01903 33 ft 0 kts 123°
2026-05-06 10:13 42.37185 -71.01882 34 ft 10 kts 123°
2026-05-06 10:13 42.37113 -71.01734 36 ft 22 kts 123°
2026-05-06 10:14 42.37007 -71.01563 34 ft 29 kts 135°
2026-05-06 10:14 42.36897 -71.01410 33 ft 20 kts 135°
2026-05-06 10:14 42.36848 -71.01293 31 ft 17 kts 74°
2026-05-06 10:14 42.36971 -71.01127 31 ft 32 kts 34°
2026-05-06 10:15 42.37177 -71.00985 29 ft 35 kts 25°
2026-05-06 10:15 42.37307 -71.00904 28 ft 23 kts 22°
2026-05-06 10:15 42.37509 -71.00804 30 ft 38 kts 20°
2026-05-06 10:15 42.37742 -71.00692 35 ft 20 kts 19°
2026-05-06 10:16 42.37833 -71.00611 35 ft 9 kts 76°
2026-05-06 10:16 42.37813 -71.00508 33 ft 15 kts 126°
2026-05-06 10:16 42.37756 -71.00493 32 ft 11 kts 192°
2026-05-06 10:16 42.37673 -71.00530 33 ft 6 kts 199°
2026-05-06 10:17 42.37663 -71.00534 33 ft 11 kts 199°
2026-05-06 10:17 42.37337 -71.00690 29 ft 87 kts 199°
2026-05-06 10:17 42.36560 -71.01066 119 ft 139 kts 199°
2026-05-06 10:17 42.35709 -71.01491 980 ft 127 kts 199°
2026-05-06 10:18 42.34801 -71.01731 1533 ft 147 kts 187°
2026-05-06 10:18 42.33712 -71.01249 1900 ft 192 kts 156°
2026-05-06 10:18 42.32710 -70.99819 2325 ft 223 kts 137°
2026-05-06 10:18 42.31800 -70.98065 2979 ft 233 kts 131°
2026-05-06 10:19 42.31229 -70.95961 3729 ft 250 kts 101°
2026-05-06 10:19 42.31361 -70.93501 4127 ft 277 kts 82°
2026-05-06 10:19 42.31780 -70.90855 4529 ft 296 kts 79°
2026-05-06 10:19 42.32235 -70.88114 5256 ft 300 kts 80°
2026-05-06 10:20 42.32668 -70.85360 6118 ft 300 kts 81°
2026-05-06 10:20 42.33084 -70.82586 6959 ft 303 kts 82°
2026-05-06 10:20 42.33319 -70.79789 7623 ft 305 kts 97°
2026-05-06 10:20 42.33078 -70.76955 8430 ft 304 kts 105°
2026-05-06 10:21 42.32715 -70.74117 9251 ft 309 kts 106°
2026-05-06 10:21 42.32332 -70.71228 10034 ft 315 kts 106°
2026-05-06 10:21 42.31937 -70.68235 10465 ft 334 kts 105°
2026-05-06 10:21 42.31519 -70.65041 10770 ft 356 kts 105°
2026-05-06 10:22 42.31098 -70.61646 11064 ft 378 kts 103°
2026-05-06 10:22 42.30786 -70.58032 11453 ft 394 kts 100°
2026-05-06 10:22 42.30502 -70.54315 12104 ft 401 kts 100°
2026-05-06 10:22 42.30209 -70.50616 12867 ft 402 kts 100°
2026-05-06 10:23 42.29901 -70.46844 13625 ft 406 kts 100°
2026-05-06 10:23 42.29582 -70.43032 14259 ft 411 kts 100°
2026-05-06 10:23 42.29254 -70.39175 14869 ft 416 kts 100°
2026-05-06 10:23 42.28918 -70.35266 15519 ft 421 kts 100°
2026-05-06 10:24 42.28576 -70.31317 16172 ft 426 kts 99°
2026-05-06 10:24 42.28229 -70.27314 16733 ft 434 kts 99°
2026-05-06 10:24 42.27867 -70.23200 17012 ft 448 kts 99°
2026-05-06 10:24 42.27490 -70.18957 17272 ft 462 kts 99°
2026-05-06 10:25 42.27102 -70.14613 17726 ft 469 kts 99°
2026-05-06 10:25 42.26714 -70.10274 18265 ft 475 kts 99°
2026-05-06 10:25 42.26279 -70.05839 18790 ft 478 kts 101°
2026-05-06 10:25 42.25736 -70.01398 19314 ft 481 kts 102°
2026-05-06 10:26 42.25136 -69.96946 19846 ft 484 kts 102°
2026-05-06 10:26 42.24516 -69.92483 20571 ft 481 kts 102°
2026-05-06 10:26 42.23909 -69.88085 21620 ft 472 kts 102°
2026-05-06 10:26 42.23393 -69.83728 22491 ft 470 kts 96°
2026-05-06 10:27 42.23190 -69.79319 23152 ft 472 kts 92°
2026-05-06 10:27 42.23110 -69.74869 23658 ft 477 kts 90°
2026-05-06 10:27 42.23094 -69.70437 24090 ft 481 kts 90°
2026-05-06 10:27 42.23107 -69.65911 24535 ft 484 kts 89°
2026-05-06 10:28 42.23126 -69.61357 24985 ft 487 kts 89°
2026-05-06 10:28 42.23142 -69.56770 25433 ft 490 kts 89°
2026-05-06 10:28 42.23149 -69.52157 25866 ft 493 kts 89°
2026-05-06 10:28 42.23148 -69.47508 26281 ft 497 kts 89°
2026-05-06 10:29 42.23141 -69.42833 26708 ft 500 kts 90°
2026-05-06 10:29 42.23129 -69.38129 27149 ft 503 kts 90°
2026-05-06 10:29 42.23114 -69.33393 27567 ft 506 kts 90°
2026-05-06 10:29 42.23097 -69.28691 27981 ft 509 kts 90°
2026-05-06 10:30 42.23078 -69.23898 28383 ft 513 kts 90°
2026-05-06 10:30 42.23057 -69.19073 28786 ft 516 kts 90°
2026-05-06 10:30 42.23035 -69.14233 29254 ft 517 kts 90°
2026-05-06 10:30 42.23010 -69.09369 29650 ft 520 kts 90°
2026-05-06 10:31 42.22983 -69.04483 29997 ft 523 kts 90°
2026-05-06 10:31 42.22954 -68.99564 30297 ft 526 kts 90°
2026-05-06 10:31 42.22922 -68.94621 30604 ft 528 kts 90°
2026-05-06 10:31 42.22888 -68.89659 30890 ft 530 kts 90°
2026-05-06 10:32 42.22852 -68.84742 31170 ft 532 kts 90°
2026-05-06 10:32 42.22814 -68.79734 31397 ft 535 kts 90°
2026-05-06 10:32 42.22772 -68.74705 31657 ft 537 kts 90°
2026-05-06 10:32 42.22728 -68.69664 32004 ft 537 kts 90°
2026-05-06 10:33 42.22683 -68.64628 32391 ft 536 kts 90°
2026-05-06 10:33 42.22637 -68.59609 32742 ft 535 kts 90°
2026-05-06 10:33 42.22589 -68.54588 33083 ft 535 kts 90°
2026-05-06 10:33 42.22538 -68.49574 33412 ft 534 kts 90°
2026-05-06 10:34 42.22486 -68.44561 33752 ft 534 kts 90°
2026-05-06 10:34 42.22432 -68.39625 34074 ft 533 kts 90°
2026-05-06 10:34 42.22376 -68.34627 34361 ft 532 kts 90°
2026-05-06 10:34 42.22317 -68.29643 34672 ft 531 kts 90°
2026-05-06 10:35 42.22256 -68.24670 34959 ft 529 kts 90°
2026-05-06 10:35 42.22193 -68.19711 35241 ft 528 kts 90°
2026-05-06 10:35 42.22126 -68.14773 35609 ft 525 kts 89°
2026-05-06 10:35 42.22058 -68.09863 35933 ft 522 kts 89°
2026-05-06 10:36 42.21987 -68.04971 36161 ft 522 kts 89°
2026-05-06 10:36 42.21914 -68.00138 36370 ft 522 kts 89°
2026-05-06 10:36 42.21839 -67.95252 36583 ft 521 kts 89°
2026-05-06 10:36 42.21761 -67.90364 36815 ft 521 kts 89°
2026-05-06 10:37 42.21682 -67.85489 37036 ft 520 kts 89°
2026-05-06 10:37 42.21600 -67.80616 37252 ft 519 kts 89°
2026-05-06 10:37 42.21517 -67.75750 37476 ft 519 kts 89°
2026-05-06 10:37 42.21432 -67.70889 37670 ft 518 kts 89°
2026-05-06 10:38 42.21345 -67.66036 37877 ft 517 kts 89°
2026-05-06 10:38 42.21256 -67.61188 38072 ft 517 kts 89°
2026-05-06 10:38 42.21166 -67.56416 38248 ft 516 kts 89°
2026-05-06 10:38 42.21074 -67.51578 38426 ft 516 kts 89°
2026-05-06 10:39 42.20980 -67.46746 38590 ft 515 kts 89°
2026-05-06 10:39 42.20883 -67.41917 38753 ft 515 kts 89°
2026-05-06 10:39 42.20785 -67.37092 38882 ft 514 kts 89°
2026-05-06 10:39 42.20684 -67.32270 38986 ft 515 kts 89°
2026-05-06 10:40 42.20478 -67.22607 39113 ft 517 kts 89°
2026-05-06 10:40 42.20265 -67.12967 39121 ft 519 kts 89°
2026-05-06 10:41 42.20480 -67.03283 39125 ft 514 kts 77°
2026-05-06 10:41 42.22704 -66.94238 39130 ft 506 kts 57°
2026-05-06 10:42 42.26245 -66.86004 39129 ft 509 kts 54°
2026-05-06 10:42 42.29977 -66.77927 39126 ft 512 kts 53°
2026-05-06 10:43 42.33738 -66.69764 39126 ft 512 kts 54°
2026-05-06 10:44 42.39315 -66.57455 39129 ft 512 kts 54°
2026-05-06 10:44 42.43015 -66.49225 39138 ft 512 kts 54°
2026-05-06 10:45 42.46687 -66.41036 39138 ft 512 kts 54°
2026-05-06 10:45 42.50381 -66.32780 39143 ft 512 kts 54°
2026-05-06 10:46 42.54070 -66.24513 39140 ft 513 kts 54°
2026-05-06 10:46 42.57754 -66.16233 39137 ft 513 kts 54°
2026-05-06 10:47 42.61407 -66.07998 39144 ft 513 kts 54°
2026-05-06 10:47 42.65080 -65.99697 39140 ft 513 kts 54°
2026-05-06 10:48 42.68750 -65.91380 39141 ft 513 kts 54°
2026-05-06 10:48 42.72415 -65.83051 39149 ft 513 kts 54°
2026-05-06 10:49 42.76074 -65.74710 39154 ft 513 kts 55°
2026-05-06 10:49 42.79705 -65.66412 39151 ft 514 kts 55°
2026-05-06 10:50 42.83359 -65.58036 39152 ft 514 kts 55°
2026-05-06 10:50 42.87006 -65.49652 39152 ft 514 kts 55°
2026-05-06 10:51 42.90643 -65.41269 39152 ft 513 kts 55°
2026-05-06 10:51 42.94267 -65.32889 39162 ft 513 kts 55°
2026-05-06 10:52 42.97859 -65.24560 39159 ft 513 kts 55°
2026-05-06 10:52 43.01471 -65.16163 39163 ft 513 kts 56°
2026-05-06 10:53 43.05080 -65.07748 39165 ft 513 kts 56°
2026-05-06 10:53 43.08677 -64.99332 39162 ft 513 kts 56°
2026-05-06 10:54 43.12248 -64.90956 39159 ft 513 kts 56°
2026-05-06 10:54 43.15837 -64.82515 39161 ft 513 kts 56°
2026-05-06 10:55 43.19418 -64.74068 39165 ft 512 kts 56°
2026-05-06 10:55 43.22990 -64.65616 39165 ft 512 kts 57°
2026-05-06 10:56 43.26532 -64.57211 39173 ft 512 kts 57°
2026-05-06 10:56 43.30095 -64.48733 39171 ft 513 kts 57°
2026-05-06 10:57 43.33655 -64.40234 39167 ft 513 kts 57°
2026-05-06 10:57 43.37208 -64.31730 39174 ft 513 kts 57°
2026-05-06 10:58 43.40757 -64.23209 39176 ft 514 kts 57°
2026-05-06 10:58 43.44278 -64.14730 39169 ft 514 kts 58°
2026-05-06 10:59 43.47810 -64.06199 39173 ft 513 kts 58°
2026-05-06 10:59 43.51333 -63.97666 39182 ft 513 kts 58°
2026-05-06 11:00 43.54851 -63.89122 39180 ft 512 kts 58°
2026-05-06 11:00 43.58339 -63.80623 39181 ft 513 kts 58°
2026-05-06 11:01 43.61844 -63.72055 39183 ft 513 kts 58°
2026-05-06 11:01 43.65343 -63.63478 39181 ft 513 kts 58°
2026-05-06 11:02 43.68835 -63.54892 39181 ft 513 kts 58°
2026-05-06 11:02 43.72297 -63.46355 39187 ft 512 kts 59°
2026-05-06 11:03 43.75767 -63.37773 39188 ft 511 kts 59°
2026-05-06 11:03 43.79227 -63.29190 39184 ft 511 kts 59°
2026-05-06 11:04 43.82678 -63.20601 39184 ft 511 kts 59°
2026-05-06 11:04 43.86124 -63.12001 39184 ft 510 kts 59°
2026-05-06 11:05 43.89538 -63.03453 39190 ft 511 kts 59°
2026-05-06 11:05 43.92974 -62.94825 39193 ft 511 kts 59°
2026-05-06 11:06 43.96404 -62.86186 39192 ft 511 kts 59°
2026-05-06 11:06 43.99829 -62.77534 39191 ft 511 kts 59°
2026-05-06 11:07 44.03223 -62.68932 39191 ft 511 kts 59°
2026-05-06 11:07 44.06636 -62.60257 39197 ft 511 kts 59°
2026-05-06 11:08 44.10042 -62.51573 39197 ft 512 kts 60°
2026-05-06 11:08 44.13443 -62.42873 39195 ft 512 kts 60°
2026-05-06 11:09 44.16838 -62.34163 39193 ft 512 kts 60°
2026-05-06 11:09 44.20203 -62.25502 39206 ft 512 kts 60°
2026-05-06 11:10 44.23586 -62.16770 39202 ft 512 kts 60°
2026-05-06 11:10 44.26960 -62.08031 39210 ft 512 kts 60°
2026-05-06 11:11 44.30308 -61.99335 39206 ft 512 kts 60°
2026-05-06 11:11 44.33672 -61.90570 39204 ft 512 kts 60°
2026-05-06 11:12 44.37029 -61.81794 39197 ft 512 kts 60°
2026-05-06 11:12 44.40381 -61.73004 39208 ft 513 kts 60°
2026-05-06 11:13 44.43731 -61.64192 39207 ft 513 kts 60°
2026-05-06 11:13 44.47055 -61.55420 39198 ft 514 kts 60°
2026-05-06 11:14 44.50395 -61.46577 39207 ft 514 kts 60°
2026-05-06 11:14 44.53728 -61.37727 39198 ft 514 kts 61°
2026-05-06 11:15 44.57060 -61.28850 39199 ft 514 kts 61°
2026-05-06 11:15 44.60386 -61.19959 39206 ft 514 kts 61°
2026-05-06 11:16 44.63683 -61.11119 39203 ft 515 kts 61°
2026-05-06 11:16 44.66996 -61.02208 39206 ft 515 kts 61°
2026-05-06 11:17 44.70303 -60.93282 39214 ft 515 kts 61°
2026-05-06 11:17 44.71954 -60.88815 39316 ft 515 kts 61°
2026-05-06 11:17 44.73604 -60.84341 39450 ft 514 kts 61°
2026-05-06 11:17 44.75248 -60.79878 39571 ft 514 kts 61°
2026-05-06 11:18 44.76867 -60.75474 39689 ft 514 kts 61°
2026-05-06 11:18 44.80146 -60.66535 39874 ft 514 kts 61°
2026-05-06 11:18 44.81781 -60.62066 40005 ft 513 kts 61°
2026-05-06 11:19 44.83412 -60.57600 40106 ft 512 kts 61°
2026-05-06 11:19 44.86670 -60.48661 40256 ft 513 kts 61°
2026-05-06 11:20 44.89922 -60.39708 40413 ft 513 kts 61°
2026-05-06 11:20 44.93149 -60.30797 40546 ft 513 kts 62°
2026-05-06 11:21 44.96390 -60.21816 40708 ft 513 kts 62°
2026-05-06 11:21 44.99626 -60.12820 40821 ft 514 kts 62°
2026-05-06 11:22 45.02851 -60.03823 41045 ft 512 kts 62°
2026-05-06 11:22 45.06043 -59.94890 41140 ft 513 kts 62°
2026-05-06 11:23 45.09252 -59.85880 41266 ft 512 kts 62°
2026-05-06 11:23 45.12449 -59.76873 41384 ft 512 kts 62°
2026-05-06 11:24 45.15643 -59.67846 41488 ft 512 kts 62°
2026-05-06 11:24 45.18806 -59.58876 41572 ft 513 kts 62°
2026-05-06 11:25 45.21986 -59.49827 41659 ft 513 kts 62°
2026-05-06 11:25 45.25160 -59.40768 41762 ft 513 kts 62°
2026-05-06 11:26 45.28327 -59.31695 41844 ft 513 kts 62°
2026-05-06 11:26 45.31489 -59.22606 41898 ft 513 kts 62°
2026-05-06 11:27 45.34623 -59.13568 41955 ft 514 kts 62°
2026-05-06 11:27 45.37774 -59.04448 42009 ft 514 kts 62°
2026-05-06 11:28 45.40919 -58.95317 42098 ft 514 kts 62°
2026-05-06 11:28 45.44057 -58.86174 42138 ft 514 kts 62°
2026-05-06 11:29 45.47189 -58.77016 42197 ft 514 kts 62°
2026-05-06 11:29 45.50295 -58.67906 42229 ft 515 kts 62°
2026-05-06 11:30 45.53418 -58.58715 42226 ft 515 kts 63°
2026-05-06 11:30 45.56532 -58.49514 42233 ft 515 kts 63°
2026-05-06 11:31 45.59638 -58.40309 42228 ft 515 kts 63°
2026-05-06 11:31 45.62716 -58.31153 42226 ft 515 kts 63°
2026-05-06 11:32 45.65813 -58.21908 42233 ft 516 kts 63°
2026-05-06 11:32 45.68904 -58.12651 42230 ft 516 kts 63°
2026-05-06 11:33 45.71984 -58.03392 42230 ft 516 kts 63°
2026-05-06 11:33 45.75058 -57.94118 42228 ft 515 kts 63°
2026-05-06 11:34 45.78099 -57.84912 42230 ft 515 kts 63°
2026-05-06 11:34 45.81153 -57.75635 42230 ft 515 kts 63°
2026-05-06 11:35 45.84198 -57.66351 42231 ft 515 kts 63°
2026-05-06 11:35 45.87237 -57.57052 42233 ft 514 kts 63°
2026-05-06 11:36 45.90245 -57.47814 42230 ft 514 kts 63°
2026-05-06 11:36 45.93268 -57.38500 42227 ft 515 kts 63°
2026-05-06 11:37 45.96284 -57.29172 42227 ft 515 kts 63°
2026-05-06 11:37 45.99291 -57.19838 42236 ft 515 kts 64°
2026-05-06 11:38 46.02290 -57.10495 42228 ft 514 kts 64°
2026-05-06 11:38 46.05262 -57.01204 42230 ft 514 kts 64°
2026-05-06 11:39 46.08246 -56.91840 42236 ft 514 kts 64°
2026-05-06 11:39 46.11223 -56.82464 42231 ft 514 kts 64°
2026-05-06 11:40 46.14191 -56.73081 42234 ft 515 kts 64°
2026-05-06 11:40 46.17135 -56.63744 42234 ft 515 kts 64°
2026-05-06 11:41 46.20089 -56.54335 42244 ft 515 kts 64°
2026-05-06 11:41 46.23038 -56.44909 42236 ft 515 kts 64°
2026-05-06 11:42 46.25980 -56.35475 42233 ft 515 kts 64°
2026-05-06 11:42 46.28893 -56.26094 42241 ft 515 kts 64°
2026-05-06 11:43 46.31819 -56.16640 42249 ft 515 kts 64°
2026-05-06 11:43 46.34736 -56.07174 42238 ft 515 kts 64°
2026-05-06 11:44 46.39101 -55.92950 42229 ft 515 kts 64°
2026-05-06 11:44 46.41981 -55.83521 42241 ft 516 kts 64°
2026-05-06 11:45 46.44876 -55.74005 42238 ft 516 kts 64°
2026-05-06 11:45 46.47765 -55.64472 42238 ft 516 kts 64°
2026-05-06 11:46 46.50648 -55.54925 42235 ft 516 kts 64°
2026-05-06 11:46 46.53522 -55.45370 42232 ft 516 kts 64°
2026-05-06 11:47 46.56370 -55.35867 42233 ft 516 kts 64°
2026-05-06 11:47 46.59227 -55.26295 42235 ft 517 kts 64°
2026-05-06 11:48 46.62080 -55.16702 42235 ft 517 kts 65°
2026-05-06 11:48 46.64924 -55.07099 42236 ft 517 kts 65°
2026-05-06 11:49 46.67759 -54.97491 42240 ft 516 kts 65°
2026-05-06 11:49 46.70567 -54.87939 42241 ft 516 kts 65°
2026-05-06 11:50 46.73383 -54.78320 42236 ft 516 kts 65°
2026-05-06 11:50 46.76192 -54.68687 42238 ft 516 kts 65°
2026-05-06 11:51 46.78993 -54.59045 42245 ft 516 kts 65°
2026-05-06 11:51 46.81784 -54.49402 42250 ft 516 kts 65°
2026-05-06 11:52 46.84546 -54.39819 42248 ft 515 kts 65°
2026-05-06 11:52 46.87318 -54.30161 42245 ft 515 kts 65°
2026-05-06 11:53 46.90082 -54.20494 42257 ft 516 kts 65°
2026-05-06 11:53 46.92845 -54.10795 42257 ft 517 kts 65°
2026-05-06 11:54 46.95584 -54.01139 42260 ft 517 kts 65°
2026-05-06 11:54 46.98332 -53.91414 42268 ft 517 kts 65°
2026-05-06 11:55 47.01071 -53.81679 42273 ft 517 kts 65°
2026-05-06 11:55 47.03805 -53.71925 42270 ft 517 kts 65°
2026-05-06 11:56 47.06514 -53.62219 42263 ft 518 kts 65°
2026-05-06 11:56 47.09231 -53.52445 42270 ft 518 kts 65°
2026-05-06 11:57 47.11941 -53.42659 42265 ft 517 kts 65°
2026-05-06 11:57 47.14639 -53.32875 42268 ft 516 kts 65°
2026-05-06 11:58 47.16872 -53.24746 42263 ft 516 kts 65°
2026-05-06 11:58 47.19985 -53.13368 42252 ft 516 kts 65°
2026-05-06 11:59 47.22656 -53.03560 42252 ft 516 kts 65°
2026-05-06 11:59 47.25317 -52.93750 42238 ft 516 kts 66°
2026-05-06 12:00 47.27524 -52.85584 42242 ft 517 kts 66°
2026-05-06 12:00 47.30172 -52.75746 42234 ft 517 kts 66°
2026-05-06 12:01 47.33238 -52.64304 42224 ft 516 kts 66°
2026-05-06 12:01 47.35419 -52.56128 42219 ft 515 kts 66°
2026-05-06 12:02 47.38033 -52.46295 42225 ft 514 kts 66°
2026-05-06 12:02 47.40631 -52.36479 42227 ft 513 kts 66°
2026-05-06 12:03 47.43220 -52.26656 42226 ft 513 kts 66°
2026-05-06 12:03 47.45803 -52.16816 42221 ft 514 kts 66°
2026-05-06 12:04 47.48359 -52.07038 42220 ft 514 kts 66°
2026-05-06 12:04 47.50926 -51.97178 42222 ft 514 kts 66°
2026-05-06 12:05 47.53493 -51.87313 42238 ft 514 kts 66°
2026-05-06 12:05 47.56054 -51.77439 42229 ft 514 kts 66°
2026-05-06 12:06 47.58589 -51.67618 42215 ft 514 kts 66°
2026-05-06 12:06 47.61132 -51.57721 42217 ft 514 kts 66°
2026-05-06 12:07 47.63669 -51.47808 42219 ft 514 kts 66°
2026-05-06 12:07 47.66196 -51.37885 42223 ft 514 kts 66°
2026-05-06 12:08 47.68697 -51.28024 42227 ft 514 kts 66°
2026-05-06 12:08 47.71206 -51.18088 42226 ft 514 kts 66°
2026-05-06 12:09 47.73707 -51.08143 42223 ft 514 kts 66°
2026-05-06 12:09 47.76199 -50.98187 42221 ft 514 kts 66°
2026-05-06 12:10 47.78666 -50.88289 42216 ft 514 kts 66°
2026-05-06 12:10 47.81141 -50.78312 42215 ft 514 kts 66°
2026-05-06 12:11 47.83608 -50.68323 42218 ft 514 kts 66°
2026-05-06 12:11 47.86065 -50.58331 42222 ft 514 kts 66°
2026-05-06 12:12 47.88511 -50.48341 42219 ft 513 kts 66°
2026-05-06 12:12 47.90949 -50.38337 42212 ft 513 kts 66°
2026-05-06 12:13 47.93360 -50.28398 42222 ft 513 kts 66°
2026-05-06 12:13 47.95780 -50.18378 42222 ft 513 kts 66°
2026-05-06 12:14 47.98206 -50.08366 42218 ft 512 kts 65°
2026-05-06 12:14 48.00810 -49.98477 42221 ft 512 kts 64°
2026-05-06 12:15 48.03398 -49.88650 42215 ft 512 kts 65°
2026-05-06 12:15 48.05940 -49.78700 42224 ft 513 kts 65°
2026-05-06 12:16 48.08441 -49.68726 42214 ft 512 kts 65°
2026-05-06 12:16 48.10928 -49.58746 42225 ft 512 kts 65°
2026-05-06 12:17 48.13407 -49.48761 42222 ft 512 kts 65°
2026-05-06 12:17 48.15863 -49.38835 42230 ft 512 kts 65°
2026-05-06 12:18 48.18326 -49.28839 42219 ft 511 kts 65°
2026-05-06 12:18 48.20780 -49.18834 42222 ft 511 kts 65°
2026-05-06 12:19 48.23224 -49.08826 42218 ft 511 kts 65°
2026-05-06 12:19 48.25644 -48.98869 42222 ft 511 kts 66°
2026-05-06 12:20 48.28072 -48.88834 42219 ft 511 kts 66°
2026-05-06 12:20 48.30490 -48.78791 42218 ft 511 kts 66°
2026-05-06 12:21 48.32901 -48.68737 42223 ft 511 kts 66°
2026-05-06 12:21 48.35301 -48.58679 42222 ft 511 kts 66°
2026-05-06 12:22 48.37678 -48.48673 42224 ft 511 kts 66°
2026-05-06 12:22 48.40062 -48.38589 42222 ft 512 kts 66°
2026-05-06 12:23 48.42437 -48.28497 42223 ft 512 kts 66°
2026-05-06 12:23 48.44804 -48.18393 42225 ft 512 kts 66°
2026-05-06 12:24 48.47147 -48.08345 42227 ft 512 kts 66°
2026-05-06 12:24 48.49497 -47.98218 42224 ft 512 kts 66°